WA5KWK Weather Reports


Display with metric or nautical units.
time (UTC)temp
F
wind
direction
speed
MPH
gust
MPH
rain 1hr
in
rain 24hr
in
rain mn
in
humidity
%
barometer
mb
20260509192005 75 176 3.0 7.0 0.00 0.00 0.00 56 1015.6
20260509190505 75 233 5.0 8.0 0.00 0.00 0.00 56 1015.9
20260509190006 75 225 5.0 8.0 0.00 0.00 0.00 58 1015.7
20260509185504 75 204 4.0 9.0 0.00 0.00 0.00 57 1015.8
20260509185005 75 205 3.0 6.0 0.00 0.00 0.00 56 1015.8
20260509184005 75 198 3.0 6.0 0.00 0.00 0.00 58 1015.9
20260509183005 75 213 5.0 7.0 0.00 0.00 0.00 55 1016.0
20260509182505 75 251 3.0 7.0 0.00 0.00 0.00 58 1015.9
20260509182004 75 229 3.0 5.0 0.00 0.00 0.00 58 1015.9
20260509181505 74 229 1.0 6.0 0.00 0.00 0.00 54 1016.0
20260509181005 74 231 2.0 5.0 0.00 0.00 0.00 54 1016.0
20260509180505 74 215 3.0 8.0 0.00 0.00 0.00 55 1016.0
20260509180005 74 222 3.0 6.0 0.00 0.00 0.00 54 1015.9
20260509175504 74 252 2.0 3.0 0.00 0.00 0.00 56 1015.9
20260509175004 74 206 3.0 6.0 0.00 0.00 0.00 56 1015.9
20260509174504 74 244 2.0 6.0 0.00 0.00 0.00 55 1015.8
20260509174004 74 205 0.0 3.0 0.00 0.00 0.00 56 1015.9
20260509173004 74 209 3.0 5.0 0.00 0.00 0.00 60 1015.8
20260509172505 74 190 3.0 6.0 0.00 0.00 0.00 54 1015.8
20260509172005 74 225 1.0 7.0 0.00 0.00 0.00 56 1015.8
20260509171504 74 230 3.0 7.0 0.00 0.00 0.00 54 1015.6
20260509171004 73 183 3.0 6.0 0.00 0.00 0.00 53 1015.6
20260509165004 72 213 3.0 3.0 0.00 0.00 0.00 54 1015.5
20260509164504 72 213 3.0 6.0 0.00 0.00 0.00 52 1015.4
20260509164005 72 217 2.0 5.0 0.00 0.00 0.00 54 1015.4
20260509163005 71 256 2.0 3.0 0.00 0.00 0.00 49 1015.4
20260509162504 71 256 2.0 3.0 0.00 0.00 0.00 53 1015.4
20260509162004 71 256 1.0 3.0 0.00 0.00 0.00 50 1015.6
20260509161504 71 258 0.0 2.0 0.00 0.00 0.00 55 1015.6
20260509161005 71 258 0.0 2.0 0.00 0.00 0.00 54 1015.5
20260509160505 71 258 0.0 2.0 0.00 0.00 0.00 58 1015.6
20260509160004 71 258 0.0 3.0 0.00 0.00 0.00 55 1015.6
20260509155005 71 258 0.0 0.0 0.00 0.00 0.00 54 1015.6
20260509154505 70 258 0.0 0.0 0.00 0.00 0.00 55 1015.5
20260509154004 70 258 0.0 0.0 0.00 0.00 0.00 56 1015.7
20260509153504 69 258 0.0 0.0 0.00 0.00 0.00 55 1015.7
20260509152504 68 258 0.0 0.0 0.00 0.00 0.00 56 1015.7
20260509152004 68 258 0.0 0.0 0.00 0.00 0.00 59 1015.5
20260509151505 68 258 0.0 0.0 0.00 0.00 0.00 58 1015.5
20260509151005 67 258 0.0 0.0 0.00 0.00 0.00 59 1015.5
20260509150504 67 258 0.0 0.0 0.00 0.00 0.00 66 1015.6
20260509150005 66 258 0.0 0.0 0.00 0.00 0.00 66 1015.5
20260509144504 64 258 0.0 0.0 0.00 0.00 0.00 66 1015.4
20260509143504 63 258 0.0 0.0 0.00 0.00 0.00 69 1015.4
20260509143004 63 258 0.0 2.0 0.00 0.00 0.00 70 1015.4
20260509142505 62 258 1.0 2.0 0.00 0.00 0.00 71 1015.4
20260509142004 62 258 0.0 2.0 0.00 0.00 0.00 70 1015.2
20260509141505 62 258 1.0 2.0 0.00 0.00 0.00 69 1015.5
20260509140005 62 258 0.0 2.0 0.00 0.00 0.00 68 1015.2
20260509135504 62 258 1.0 2.0 0.00 0.00 0.00 69 1015.2
20260509135005 62 258 0.0 0.0 0.00 0.00 0.00 69 1015.0
20260509134505 62 258 0.0 0.0 0.00 0.00 0.00 69 1015.2
20260509134005 62 258 0.0 0.0 0.00 0.00 0.00 67 1015.0
20260509133504 62 263 0.0 0.0 0.00 0.00 0.00 66 1015.0
20260509133005 62 263 0.0 0.0 0.00 0.00 0.00 66 1014.9
20260509132504 62 263 0.0 0.0 0.00 0.00 0.00 66 1015.0
20260509132005 62 263 0.0 0.0 0.00 0.00 0.00 66 1015.0
20260509131509 62 263 0.0 0.0 0.00 0.00 0.00 66 1015.0
20260509131005 61 263 0.0 0.0 0.00 0.00 0.00 67 1014.9
20260509130005 61 263 0.0 0.0 0.00 0.00 0.00 67 1014.9
20260509125504 62 263 0.0 0.0 0.00 0.00 0.00 67 1014.9
20260509125004 62 263 0.0 0.0 0.00 0.00 0.00 66 1014.8
20260509124505 62 263 0.0 0.0 0.00 0.00 0.00 66 1014.8
20260509124005 62 263 0.0 0.0 0.00 0.00 0.00 67 1014.8
20260509123505 62 263 0.0 0.0 0.00 0.00 0.00 66 1014.8
20260509122505 62 263 0.0 0.0 0.00 0.00 0.00 67 1014.8
20260509121504 61 263 0.0 0.0 0.00 0.00 0.00 68 1014.8
20260509121004 61 263 0.0 0.0 0.00 0.00 0.00 68 1014.9
20260509120504 62 263 0.0 0.0 0.00 0.00 0.00 67 1014.9
20260509120004 62 263 0.0 0.0 0.00 0.00 0.00 67 1014.8
20260509115505 62 263 0.0 0.0 0.00 0.00 0.00 68 1014.8
20260509115004 61 263 0.0 0.0 0.00 0.00 0.00 68 1014.9
20260509114504 61 263 0.0 1.0 0.00 0.00 0.00 69 1014.9
20260509113004 61 263 1.0 2.0 0.00 0.00 0.00 70 1014.9
20260509112005 61 263 1.0 2.0 0.00 0.00 0.00 71 1014.9
20260509111504 60 263 1.0 2.0 0.00 0.00 0.00 71 1014.8
20260509110504 60 263 1.0 2.0 0.00 0.00 0.00 71 1015.1
20260509105504 60 263 1.0 2.0 0.00 0.00 0.00 72 1015.0
20260509104504 61 263 1.0 2.0 0.00 0.00 0.00 72 1015.1
20260509104005 61 263 0.0 0.0 0.00 0.00 0.00 71 1015.1
20260509103504 61 263 0.0 0.0 0.00 0.00 0.00 71 1015.0
20260509103006 61 263 0.0 1.0 0.00 0.00 0.00 71 1015.1
20260509102505 60 263 1.0 2.0 0.00 0.00 0.00 72 1015.1
20260509102005 60 263 1.0 2.0 0.00 0.00 0.00 72 1015.1
20260509101505 60 263 1.0 2.0 0.00 0.00 0.00 72 1015.1
20260509101005 60 263 1.0 2.0 0.00 0.00 0.00 73 1015.1
20260509100505 60 263 1.0 2.0 0.00 0.00 0.00 72 1015.1
20260509100005 60 263 1.0 2.0 0.00 0.00 0.00 72 1015.2
20260509095504 60 263 1.0 2.0 0.00 0.00 0.00 73 1015.3
20260509095005 60 263 1.0 2.0 0.00 0.00 0.00 73 1015.2
20260509094504 60 263 1.0 2.0 0.00 0.00 0.00 73 1015.3
20260509094004 60 263 1.0 2.0 0.00 0.00 0.00 73 1015.2
20260509093005 59 263 1.0 2.0 0.00 0.00 0.00 75 1015.5
20260509092504 59 263 1.0 2.0 0.00 0.00 0.00 75 1015.1
20260509092004 59 263 1.0 2.0 0.00 0.00 0.00 76 1015.1
20260509091505 59 263 2.0 3.0 0.00 0.00 0.00 76 1015.2
20260509091005 59 263 1.0 2.0 0.00 0.00 0.00 75 1015.4
20260509090505 60 262 0.0 0.0 0.00 0.00 0.00 74 1015.4
20260509090004 60 263 0.0 0.0 0.00 0.00 0.00 75 1015.3
20260509085504 59 263 1.0 3.0 0.00 0.00 0.00 76 1015.3
20260509084504 57 262 1.0 2.0 0.00 0.00 0.00 79 1015.4
20260509084005 57 262 1.0 2.0 0.00 0.00 0.00 79 1015.4
20260509083504 57 262 0.0 2.0 0.00 0.00 0.00 78 1015.5
20260509083005 58 262 0.0 1.0 0.00 0.00 0.00 78 1015.4
20260509082513 58 262 1.0 2.0 0.00 0.00 0.00 77 1015.3
20260509082004 58 262 1.0 2.0 0.00 0.00 0.00 76 1015.5
20260509081504 59 262 1.0 2.0 0.00 0.00 0.00 76 1015.4
20260509080504 58 263 1.0 2.0 0.00 0.00 0.00 77 1015.5
20260509080004 58 263 1.0 3.0 0.00 0.00 0.00 77 1015.7
20260509075504 58 262 1.0 2.0 0.00 0.00 0.00 77 1015.6
20260509075004 59 262 1.0 3.0 0.00 0.00 0.00 76 1015.7
20260509074505 59 262 2.0 3.0 0.00 0.00 0.00 75 1015.7
20260509073504 59 262 1.0 2.0 0.00 0.00 0.00 78 1015.7
20260509073005 59 262 1.0 2.0 0.00 0.00 0.00 78 1015.7
20260509072504 59 262 1.0 2.0 0.00 0.00 0.00 78 1015.7
20260509072005 59 262 0.0 0.0 0.00 0.00 0.00 78 1015.6
20260509071006 60 262 0.0 0.0 0.00 0.00 0.00 77 1015.7
20260509070505 60 262 0.0 0.0 0.00 0.00 0.00 77 1015.7
20260509070004 60 262 0.0 0.0 0.00 0.00 0.00 78 1015.7
20260509065505 60 262 0.0 0.0 0.00 0.00 0.00 78 1015.8
20260509065004 60 262 0.0 0.0 0.00 0.00 0.00 78 1015.7
20260509064504 60 262 0.0 0.0 0.00 0.00 0.00 78 1015.7
20260509064004 59 262 0.0 0.0 0.00 0.00 0.00 78 1015.7
20260509063504 59 262 0.0 0.0 0.00 0.00 0.00 78 1015.6
20260509063004 59 262 0.0 0.0 0.00 0.00 0.00 78 1015.9
20260509062504 59 262 0.0 0.0 0.00 0.00 0.00 78 1015.9
20260509062005 59 262 0.0 1.0 0.00 0.00 0.00 78 1015.9
20260509061504 59 262 0.0 1.0 0.00 0.00 0.00 79 1015.9
20260509061004 59 262 1.0 2.0 0.00 0.00 0.00 79 1016.0
20260509060504 59 262 1.0 2.0 0.00 0.00 0.00 79 1016.0
20260509060005 59 262 1.0 2.0 0.00 0.00 0.00 80 1016.0
20260509055505 59 262 1.0 2.0 0.00 0.00 0.00 81 1016.0
20260509055004 59 262 1.0 2.0 0.00 0.00 0.00 81 1016.0
20260509054504 59 262 1.0 3.0 0.00 0.00 0.00 81 1016.0
20260509054004 59 262 2.0 3.0 0.00 0.00 0.00 81 1016.0
20260509053504 60 262 2.0 3.0 0.00 0.00 0.00 80 1016.0
20260509053004 60 262 2.0 3.0 0.00 0.00 0.00 80 1016.0
20260509052504 60 262 2.0 3.0 0.00 0.00 0.00 79 1015.9
20260509050504 61 262 1.0 2.0 0.00 0.00 0.00 78 1016.1
20260509050004 61 262 0.0 0.0 0.00 0.00 0.00 78 1016.0
20260509045503 62 262 1.0 2.0 0.00 0.00 0.00 77 1015.9
20260509044504 62 262 0.0 0.0 0.00 0.00 0.00 76 1016.0
20260509043504 62 262 0.0 0.0 0.00 0.00 0.00 76 1016.3
20260509043004 62 262 0.0 0.0 0.00 0.00 0.00 75 1015.9
20260509042004 63 262 0.0 0.0 0.00 0.00 0.00 75 1015.8
20260509041504 63 262 0.0 0.0 0.00 0.00 0.00 74 1015.8
20260509041004 63 262 0.0 1.0 0.00 0.00 0.00 74 1015.8
20260509040504 63 262 0.0 0.0 0.00 0.00 0.00 73 1015.9
20260509040005 64 262 0.0 1.0 0.00 0.00 0.00 73 1016.0
20260509035004 64 262 0.0 1.0 0.00 0.00 0.00 71 1015.9
20260509034503 65 262 0.0 1.0 0.00 0.00 0.00 70 1015.9
20260509034004 65 262 0.0 0.0 0.00 0.00 0.00 70 1016.0
20260509033504 66 262 0.0 1.0 0.00 0.00 0.00 69 1016.0
20260509033006 66 262 0.0 1.0 0.00 0.00 0.00 67 1016.0
20260509032503 66 262 0.0 1.0 0.00 0.00 0.00 66 1015.9
20260509031504 67 262 0.0 1.0 0.00 0.00 0.00 65 1015.7
20260509031004 68 262 0.0 2.0 0.00 0.00 0.00 64 1015.7
20260509030504 68 262 0.0 3.0 0.00 0.00 0.00 63 1015.7
20260509025504 69 262 0.0 1.0 0.00 0.00 0.00 63 1015.7
20260509024504 69 262 0.0 2.0 0.00 0.00 0.00 62 1015.7
20260509024004 70 262 1.0 3.0 0.00 0.00 0.00 61 1015.6
20260509023504 70 262 0.0 2.0 0.00 0.00 0.00 60 1015.6
20260509023004 70 262 1.0 3.0 0.00 0.00 0.00 60 1015.4
20260509022504 71 261 2.0 3.0 0.00 0.00 0.00 59 1015.5
20260509022004 71 257 3.0 7.0 0.00 0.00 0.00 58 1015.6
20260509021503 71 271 2.0 6.0 0.00 0.00 0.00 58 1015.5
20260509020504 73 267 2.0 3.0 0.00 0.00 0.00 56 1015.7
20260509020004 73 267 3.0 7.0 0.00 0.00 0.00 54 1015.7
20260509015504 73 270 1.0 7.0 0.00 0.00 0.00 55 1015.6
20260509015004 74 264 2.0 7.0 0.00 0.00 0.00 54 1015.8
20260509014504 74 270 1.0 3.0 0.00 0.00 0.00 54 1015.6
20260509014004 74 288 2.0 7.0 0.00 0.00 0.00 53 1015.7
20260509013504 74 257 2.0 7.0 0.00 0.00 0.00 53 1015.7
20260509012005 75 272 1.0 5.0 0.00 0.00 0.00 53 1015.8
20260509011505 75 241 3.0 7.0 0.00 0.00 0.00 52 1015.9
20260509011005 75 253 3.0 5.0 0.00 0.00 0.00 52 1015.9
20260509010005 76 260 1.0 6.0 0.00 0.00 0.00 51 1016.0
20260509005505 76 282 3.0 7.0 0.00 0.00 0.00 51 1016.0
20260509005005 76 299 2.0 5.0 0.00 0.00 0.00 50 1016.0
20260509004505 76 266 2.0 3.0 0.00 0.00 0.00 52 1016.2
20260509004005 76 281 2.0 3.0 0.00 0.00 0.00 50 1016.0
20260509003505 76 289 2.0 6.0 0.00 0.00 0.00 50 1016.3
20260509003005 76 236 3.0 7.0 0.00 0.00 0.00 49 1016.3
20260509002505 76 294 2.0 8.0 0.00 0.00 0.00 50 1016.3
20260509002005 76 225 4.0 8.0 0.00 0.00 0.00 50 1016.2
20260509001005 77 266 2.0 6.0 0.00 0.00 0.00 47 1016.4
20260509000505 76 225 2.0 5.0 0.00 0.00 0.00 52 1016.4
20260508235504 76 267 3.0 9.0 0.00 0.00 0.00 47 1016.5
20260508235005 76 248 2.0 5.0 0.00 0.00 0.00 49 1016.4
20260508234505 75 268 1.0 7.0 0.00 0.00 0.00 48 1016.5
20260508234005 75 264 3.0 8.0 0.00 0.00 0.00 48 1016.5
20260508233006 76 259 3.0 6.0 0.00 0.00 0.00 49 1016.6
20260508232506 77 274 3.0 6.0 0.00 0.00 0.00 47 1016.6
20260508231505 76 219 3.0 8.0 0.00 0.00 0.00 46 1016.6
20260508231005 76 205 2.0 7.0 0.00 0.00 0.00 45 1016.6
20260508230505 75 262 3.0 10.0 0.00 0.00 0.00 46 1016.6
20260508225505 76 266 4.0 9.0 0.00 0.00 0.00 45 1016.8
20260508224505 76 250 4.0 7.0 0.00 0.00 0.00 42 1017.0
20260508223505 77 300 3.0 7.0 0.00 0.00 0.00 39 1017.1
20260508223005 76 288 2.0 3.0 0.00 0.00 0.00 40 1017.0
20260508222504 76 271 3.0 8.0 0.00 0.00 0.00 39 1017.0
20260508222005 76 257 4.0 8.0 0.00 0.00 0.00 43 1017.1
20260508221505 75 42 2.0 6.0 0.00 0.00 0.00 45 1017.2
20260508221005 75 216 6.0 10.0 0.00 0.00 0.00 48 1017.2
20260508220505 76 191 4.0 9.0 0.00 0.00 0.00 51 1017.4
20260508220005 76 279 3.0 9.0 0.00 0.00 0.00 50 1017.2
20260508215505 75 250 5.0 9.0 0.00 0.00 0.00 48 1017.4
20260508215006 76 275 3.0 9.0 0.00 0.00 0.00 49 1017.4
20260508214505 75 300 2.0 5.0 0.00 0.00 0.00 48 1017.5
20260508214005 75 263 4.0 9.0 0.00 0.00 0.00 46 1017.4
20260508213504 75 212 4.0 10.0 0.00 0.00 0.00 52 1017.6
20260508213005 75 272 5.0 8.0 0.00 0.00 0.00 52 1017.6
20260508212505 74 292 4.0 6.0 0.00 0.00 0.00 46 1017.6
20260508212005 74 215 5.0 12.0 0.00 0.00 0.00 54 1017.7
20260508211505 74 209 5.0 10.0 0.00 0.00 0.00 54 1017.8
20260508211005 74 227 3.0 9.0 0.00 0.00 0.00 55 1017.6
20260508210504 75 183 4.0 9.0 0.00 0.00 0.00 53 1017.8
20260508210008 74 244 5.0 9.0 0.00 0.00 0.00 54 1017.6
20260508205505 74 188 7.0 13.0 0.00 0.00 0.00 54 1017.8
20260508205005 75 196 5.0 9.0 0.00 0.00 0.00 52 1017.8
20260508203505 75 226 3.0 8.0 0.00 0.00 0.00 55 1017.7
20260508203005 75 283 3.0 7.0 0.00 0.00 0.00 55 1017.8
20260508202505 75 213 4.0 9.0 0.00 0.00 0.00 54 1017.9
20260508202005 76 197 6.0 13.0 0.00 0.00 0.00 53 1017.9
20260508201506 76 252 4.0 9.0 0.00 0.00 0.00 54 1017.7
20260508201005 76 222 4.0 10.0 0.00 0.00 0.00 51 1017.8
20260508200504 76 233 3.0 8.0 0.00 0.00 0.00 55 1017.8
20260508200005 76 269 4.0 8.0 0.00 0.00 0.00 51 1017.7
20260508195505 76 202 3.0 7.0 0.00 0.00 0.00 55 1017.8
20260508195005 75 249 4.0 8.0 0.00 0.00 0.00 51 1018.0
20260508194505 75 189 4.0 8.0 0.00 0.00 0.00 53 1017.7
20260508194005 75 248 3.0 9.0 0.00 0.00 0.00 49 1017.8
20260508193504 75 199 5.0 9.0 0.00 0.00 0.00 51 1017.9
20260508192505 76 231 4.0 8.0 0.00 0.00 0.00 51 1018.1